Probability
10 6 6 0 0 3 6 6 6 6 6 6 10 13 10 6 13 13 13 10 10 10 10 13 13 13 16 16 13 13 10 10 6 6 3 6 10 13 6 6 6 6 6
6 3 6 10 6 13 3 6 6 6 6 6 6 10 10 13 13 13 10 10 6 6 3 3 6 6 10 10 13 13 10 10 10 10 6 6 16 16 13 10 6 0 0
6 3 6 6 10 10 13 13 10 10 10 6 6 6 10 10 10 6 3 3 3 3 3 3 3 6 10 10 6 10 13 6 13 6 6 23 13 16 13 13 3 13 3
3 3 6 6 6 10 13 13 10 10 6 6 6 6 3 3 3 3 3 3 3 3 3 3 6 3 3 3 3 6 6 6 6 6 10 13 19 16 13 10 13 16 6
3 3 6 6 6 6 13 10 10 10 6 3 0 0 0 0 3 3 6 3 3 3 3 3 3 3 3 3 3 6 6 10 6 3 3 10 10 16 16 16 6 6 6
6 3 6 10 10 6 3 3 6 3 3 3 3 0 0 0 0 3 3 3 3 3 3 3 3 3 3 0 3 3 3 6 6 6 10 13 10 13 13 3 3 0 3
3 6 3 3 3 3 3 3 3 3 3 3 3 6 0 0 0 0 0 3 3 6 3 3 3 3 3 3 3 0 0 0 3 6 10 10 10 10 10 6 6 0 0
3 0 3 3 3 3 3 3 3 6 6 10 6 3 3 0 0 0 0 3 3 6 6 6 3 3 3 3 6 6 6 3 3 3 6 3 3 6 6 0 0 0 0
0 0 0 3 3 3 3 3 6 10 13 6 3 3 3 3 0 0 0 3 6 3 3 3 3 3 3 3 3 6 6 3 0 0 0 0 0 0 0 0 0 0 0
0 0 0 3 3 3 3 3 6 6 6 3 3 3 3 6 0 0 0 3 3 3 3 3 3 3 3 0 6 6 3 3 3 0 0 0 0 0 0 0 0 0 0
3 3 3 3 3 3 3 3 3 3 3 6 6 10 10 6 3 0 0 3 3 6 6 6 3 3 0 0 3 3 3 3 3 3 3 0 0 0 0 3 0 0 0
3 3 3 3 3 3 3 6 6 6 6 10 10 13 6 0 0 0 0 0 0 3 3 3 3 3 0 0 0 0 3 0 3 3 3 3 0 0 0 0 0 0 3
0 3 3 3 3 3 3 6 6 10 10 6 0 0 0 0 0 0 0 0 0 0 0 0 0 0 0 0 0 0 0 0 3 3 3 3 0 0 0 0 0 3 3
0 3 6 6 6 10 10 3 6 0 0 0 0 0 0 3 3 0 0 0 0 0 0 0 0 0 0 0 0 0 0 0 0 0 3 3 0 0 0 0 0 0 0
3 0 0 0 3 10 6 6 0 6 0 0 0 3 3 3 0 0 0 0 0 0 0 0 0 0 0 0 0 0 0 0 0 0 0 0 0 0 0 0 0 0 0
3 6 0 0 0 0 0 6 0 0 0 0 0 0 0 0 0 0 0 0 0 0 0 0 0 0 0 0 0 0 0 0 0 0 0 0 0 0 0 0 0 0 0
3 0 0 0 0 0 0 0 3 0 0 0 0 0 0 0 0 0 0 0 0 0 0 0 0 0 0 0 0 0 0 0 0 0 0 0 0 0 0 0 0 0 0
0 0 0 0 0 0 0 0 0 3 3 3 0 0 0 0 0 0 0 0 0 0 0 0 0 0 0 0 0 0 0 0 0 0 0 0 0 0 0 0 0 0 0
0 0 0 0 0 0 0 0 0 0 0 0 0 3 0 0 0 0 0 0 0 0 0 0 0 0 0 0 0 0 0 0 0 0 0 0 0 0 0 0 0 0 0
3 0 0 0 0 0 0 0 0 0 0 0 0 0 3 3 3 0 0 0 0 0 0 0 0 0 0 0 3 0 0 0 0 0 0 0 0 0 0 0 0 0 0
3 0 0 0 0 0 0 0 0 0 0 0 0 0 0 0 3 3 3 0 3 3 3 3 3 0 0 0 0 0 0 0 0 0 0 0 0 0 0 0 0 0 0
3 0 0 0 0 0 0 0 0 0 0 0 0 0 0 0 3 3 3 3 0 3 3 3 3 3 3 0 0 0 0 0 0 0 0 0 0 0 0 0 0 0 0
3 0 0 0 0 0 0 0 0 0 0 0 0 0 0 0 0 0 0 3 3 3 0 3 3 3 3 3 0 0 0 0 0 0 0 0 0 0 0 0 0 0 0
0 3 0 0 0 0 0 0 0 0 0 0 0 0 0 0 0 0 0 0 0 0 0 0 0 0 0 0 0 0 0 0 0 0 0 0 0 0 0 0 0 0 0
0 3 3 0 0 0 0 0 0 0 0 0 0 0 0 0 0 0 0 0 0 0 0 0 0 0 0 0 0 0 0 0 0 0 0 0 0 0 0 0 0 0 0
0 0 0 0 0 0 0 0 0 0 0 0 0 0 0 0 0 0 0 0 0 0 0 0 0 0 0 0 0 0 0 0 0 0 0 0 0 0 0 0 0 0 0
Height
5778 5776 5775 5774 5773 5773 5773 5773 5773 5774 5774 5774 5774 5774 5773 5772 5771 5770 5769 5767 5766 5765 5763 5760 5758 5755 5752 5748 5745 5742 5738 5735 5732 5730 5727 5724 5721 5718 5715 5713 5710 5708 5706
5774 5773 5772 5771 5770 5770 5770 5770 5770 5770 5771 5771 5770 5770 5769 5768 5767 5765 5764 5762 5761 5759 5757 5754 5752 5749 5745 5742 5738 5734 5731 5727 5724 5721 5717 5714 5711 5708 5705 5702 5699 5697 5695
5771 5770 5769 5769 5768 5768 5768 5768 5768 5768 5768 5768 5767 5766 5765 5763 5762 5760 5759 5758 5756 5754 5751 5749 5746 5743 5739 5735 5731 5727 5723 5719 5715 5711 5708 5704 5701 5698 5695 5692 5689 5686 5684
5769 5768 5767 5767 5767 5766 5766 5766 5766 5765 5765 5765 5764 5762 5760 5759 5757 5755 5754 5753 5751 5748 5746 5743 5740 5737 5733 5729 5725 5720 5715 5711 5707 5703 5699 5695 5692 5688 5684 5682 5679 5676 5674
5768 5767 5766 5765 5765 5765 5765 5765 5764 5763 5763 5762 5760 5758 5756 5755 5753 5751 5750 5748 5746 5743 5741 5737 5734 5730 5726 5722 5718 5713 5708 5704 5699 5695 5691 5687 5683 5679 5675 5672 5669 5667 5664
5767 5766 5765 5764 5764 5764 5764 5763 5762 5761 5760 5759 5757 5755 5753 5751 5749 5748 5746 5743 5741 5738 5735 5732 5728 5724 5720 5716 5711 5706 5701 5696 5692 5687 5683 5679 5675 5671 5667 5663 5660 5657 5655
5766 5765 5764 5764 5763 5763 5762 5762 5761 5759 5758 5756 5754 5752 5750 5748 5746 5744 5741 5739 5736 5733 5730 5727 5723 5719 5714 5709 5705 5700 5694 5689 5684 5680 5675 5671 5667 5663 5659 5655 5651 5648 5645
5766 5765 5764 5764 5763 5762 5761 5760 5759 5757 5755 5754 5752 5750 5748 5746 5743 5740 5738 5735 5732 5729 5726 5722 5718 5713 5708 5703 5699 5693 5688 5682 5678 5673 5668 5663 5659 5654 5651 5647 5643 5640 5636
5766 5765 5765 5764 5763 5762 5760 5758 5757 5755 5754 5752 5750 5748 5745 5743 5740 5738 5735 5732 5728 5725 5721 5718 5713 5709 5704 5698 5693 5688 5682 5676 5671 5666 5661 5656 5652 5647 5643 5639 5635 5631 5628
5767 5766 5765 5763 5762 5761 5759 5757 5755 5754 5752 5750 5748 5746 5743 5741 5738 5735 5732 5728 5725 5721 5717 5713 5709 5704 5699 5693 5688 5682 5676 5671 5665 5659 5654 5649 5645 5640 5636 5631 5627 5624 5620
5767 5766 5765 5763 5762 5760 5758 5756 5754 5753 5751 5749 5747 5744 5741 5738 5736 5733 5729 5725 5721 5718 5713 5709 5705 5700 5694 5688 5683 5677 5671 5665 5659 5654 5648 5643 5638 5633 5629 5625 5621 5617 5613
5767 5766 5764 5763 5761 5759 5758 5756 5754 5752 5750 5748 5745 5742 5739 5736 5733 5730 5726 5722 5718 5714 5710 5705 5700 5695 5690 5684 5679 5673 5667 5661 5654 5648 5643 5637 5632 5627 5622 5618 5614 5610 5606
5767 5766 5764 5762 5760 5759 5757 5755 5753 5751 5749 5746 5744 5741 5737 5734 5730 5727 5723 5719 5715 5711 5706 5702 5697 5692 5686 5680 5674 5669 5663 5656 5650 5643 5637 5632 5627 5622 5617 5612 5608 5604 5600
5766 5765 5763 5762 5760 5758 5756 5754 5752 5750 5748 5745 5742 5739 5736 5732 5728 5724 5720 5716 5712 5707 5702 5698 5693 5687 5682 5676 5670 5664 5658 5652 5645 5639 5633 5627 5622 5617 5612 5607 5603 5599 5595
5766 5764 5763 5761 5759 5757 5755 5753 5750 5748 5746 5744 5740 5737 5733 5730 5726 5721 5717 5713 5708 5703 5698 5694 5688 5683 5677 5672 5666 5660 5654 5647 5641 5635 5629 5623 5618 5613 5608 5603 5598 5594 5589
5765 5763 5762 5760 5758 5756 5754 5752 5749 5746 5744 5741 5738 5735 5731 5727 5723 5719 5714 5710 5705 5700 5695 5689 5684 5679 5673 5668 5662 5656 5650 5644 5638 5632 5626 5620 5615 5609 5604 5599 5594 5590 5585
5764 5762 5761 5759 5757 5755 5753 5750 5748 5745 5742 5738 5735 5732 5728 5724 5720 5716 5711 5707 5702 5697 5691 5686 5680 5675 5670 5664 5658 5652 5646 5641 5635 5629 5623 5618 5612 5607 5601 5596 5591 5587 5582
5763 5761 5759 5757 5755 5753 5751 5748 5746 5742 5739 5736 5733 5729 5725 5721 5717 5712 5708 5703 5698 5693 5688 5682 5677 5672 5666 5661 5655 5649 5644 5638 5632 5627 5621 5615 5610 5604 5599 5594 5588 5583 5578
5761 5759 5757 5755 5753 5751 5748 5746 5743 5740 5736 5733 5729 5726 5722 5718 5713 5709 5704 5700 5695 5689 5684 5679 5674 5668 5663 5658 5652 5647 5641 5635 5630 5624 5619 5613 5608 5602 5597 5591 5586 5581 5575
5758 5757 5755 5753 5750 5748 5746 5743 5740 5737 5734 5730 5726 5722 5718 5714 5710 5705 5701 5696 5691 5686 5681 5676 5671 5665 5660 5655 5649 5644 5638 5633 5627 5622 5616 5611 5606 5600 5595 5589 5584 5578 5573
5755 5754 5752 5750 5748 5745 5743 5740 5737 5734 5731 5727 5723 5719 5715 5711 5706 5702 5697 5693 5688 5683 5678 5673 5668 5663 5657 5652 5647 5641 5636 5630 5625 5620 5614 5609 5603 5598 5593 5587 5582 5576 5570
5752 5750 5748 5746 5745 5742 5740 5737 5734 5731 5727 5723 5719 5715 5711 5707 5703 5698 5694 5689 5685 5680 5675 5670 5665 5660 5654 5649 5644 5638 5633 5628 5622 5617 5612 5606 5601 5596 5590 5585 5579 5574 5568
5748 5746 5745 5743 5741 5739 5736 5734 5731 5727 5723 5720 5716 5712 5708 5704 5700 5695 5691 5686 5682 5677 5672 5667 5662 5656 5651 5646 5641 5636 5631 5625 5620 5615 5609 5604 5599 5593 5588 5582 5577 5571 5566
5744 5742 5741 5739 5737 5735 5732 5730 5727 5723 5720 5716 5712 5708 5704 5700 5696 5692 5688 5683 5678 5674 5669 5664 5659 5654 5649 5643 5638 5633 5628 5623 5618 5612 5607 5602 5596 5591 5586 5580 5575 5569 5564
5740 5738 5737 5735 5733 5731 5728 5726 5723 5720 5716 5713 5709 5705 5701 5697 5693 5689 5684 5680 5675 5671 5666 5661 5656 5651 5646 5641 5636 5631 5626 5621 5616 5611 5606 5600 5595 5589 5584 5579 5573 5568 5563
5736 5735 5733 5731 5729 5727 5724 5722 5719 5716 5712 5709 5705 5701 5697 5693 5689 5685 5681 5676 5672 5667 5663 5657 5652 5648 5643 5638 5633 5629 5624 5619 5614 5610 5604 5599 5594 5589 5583 5578 5573 5567 5562
Wind_Speed
12 11 11 12 11 11 12 13 13 13 13 13 14 14 15 16 16 17 17 18 19 19 20 22 22 23 24 25 26 26 27 28 29 29 30 31 31 31 32 32 33 32 33
11 11 10 10 10 10 10 10 11 12 13 13 13 13 15 16 17 17 17 18 19 20 20 21 22 23 24 25 25 26 27 28 29 30 30 31 31 32 32 33 33 32 32
10 9 9 9 8 8 9 9 10 10 10 11 12 13 14 16 16 17 17 18 18 19 21 22 23 23 23 25 25 25 27 28 29 29 30 30 31 32 32 32 32 31 31
8 8 7 7 7 7 7 7 7 8 9 10 12 13 14 15 16 16 16 16 17 19 20 21 23 23 24 24 25 26 27 28 28 28 28 28 29 30 31 30 30 30 30
6 6 6 6 6 6 5 6 7 8 9 10 11 12 13 13 14 15 15 16 17 18 19 20 21 22 23 25 25 26 27 28 28 28 27 27 28 28 28 29 29 29 30
6 6 6 5 4 4 5 6 7 8 9 9 10 11 11 12 12 13 15 16 17 18 19 20 21 22 23 24 25 27 28 28 28 28 28 28 28 28 27 28 28 28 29
5 5 5 4 4 5 5 6 8 8 9 9 10 11 12 13 13 14 15 15 16 17 18 19 21 23 24 25 26 27 28 28 28 28 28 28 28 28 27 27 27 27 29
4 4 5 4 5 6 7 8 8 8 9 9 10 11 12 12 13 14 15 15 16 17 18 20 21 23 24 25 26 27 28 28 28 28 28 28 27 27 28 28 27 27 27
5 5 5 5 5 6 7 8 8 7 8 9 10 10 11 12 13 14 14 15 16 17 18 19 21 24 25 26 26 27 27 27 28 28 28 28 27 27 28 28 27 26 26
5 5 5 5 6 7 8 8 7 7 8 9 10 11 13 13 14 14 15 16 17 18 19 20 22 24 25 26 26 26 27 27 27 27 27 27 27 27 27 26 26 26 25
5 5 5 5 6 7 7 7 7 8 9 10 11 12 13 13 14 15 16 17 18 18 20 21 22 24 25 25 26 26 26 26 26 26 26 27 26 26 26 25 25 25 24
6 6 6 6 7 7 8 7 8 8 10 10 11 12 14 14 14 15 16 17 18 19 20 21 23 24 25 25 26 26 26 26 26 26 26 26 25 25 25 24 24 24 24
6 6 6 7 7 8 8 8 8 9 10 11 12 13 14 15 16 16 17 18 19 20 20 21 23 24 25 25 25 25 26 26 26 26 26 25 24 24 24 23 23 23 24
7 7 7 7 8 8 8 9 9 10 11 12 13 15 16 16 17 17 18 19 20 20 20 22 23 24 25 25 24 25 26 26 27 26 25 24 24 23 23 23 23 23 22
7 7 8 8 9 10 10 11 11 12 12 13 15 15 16 18 18 18 19 20 21 22 22 23 24 25 25 24 24 25 26 26 26 26 25 24 24 23 23 23 23 22 22
8 8 9 9 9 10 11 12 12 13 13 14 15 17 17 18 19 19 19 21 22 23 23 24 24 25 25 24 24 25 26 26 26 26 25 24 24 23 23 23 22 22 22
8 9 9 10 10 10 11 12 12 13 14 15 16 17 17 18 19 20 21 22 23 24 24 24 25 25 25 24 25 25 26 25 26 26 25 24 24 24 23 23 23 22 22
9 9 10 10 10 10 11 12 13 14 15 16 17 18 19 19 20 21 22 22 23 24 24 24 25 25 25 24 24 25 25 25 25 25 25 24 24 24 24 23 23 23 23
10 10 11 11 11 11 12 13 14 15 16 17 18 19 19 20 21 21 22 23 23 24 24 24 24 25 25 24 23 24 25 24 24 24 24 24 24 24 24 23 24 24 24
11 11 11 12 12 12 13 14 15 16 17 18 19 20 20 21 21 22 23 23 23 24 24 24 24 24 24 24 24 24 24 24 24 24 24 23 24 24 24 24 24 25 24
11 12 12 12 12 13 14 15 16 16 17 18 19 20 21 21 21 22 23 23 23 23 23 24 24 24 24 24 24 24 25 25 24 24 23 23 24 24 24 24 24 25 24
12 13 13 13 13 13 14 15 16 17 18 19 20 20 20 21 22 23 23 23 23 23 23 24 24 24 24 24 24 24 24 24 24 24 24 24 24 24 24 24 24 24 24
13 13 12 12 13 14 15 15 16 17 18 19 20 20 20 21 21 22 22 22 22 23 24 24 24 23 23 24 24 24 24 23 24 24 24 24 24 25 25 24 24 24 23
13 12 12 13 13 14 15 16 16 17 18 19 19 20 20 20 21 21 22 22 23 23 23 24 24 23 23 23 23 23 23 23 24 24 24 24 24 24 24 24 24 24 23
13 13 13 14 14 15 15 16 17 17 18 19 19 20 20 20 21 22 22 22 22 23 23 23 23 23 23 23 22 22 23 23 24 24 24 24 24 24 24 24 24 24 22
13 14 14 14 15 15 16 16 17 18 18 19 20 20 21 21 22 22 22 22 23 23 23 23 23 23 22 22 22 22 23 23 23 23 23 24 24 24 24 23 24 24 23
Wind_Direction
299 295 292 290 283 276 271 270 270 273 273 274 275 278 280 283 286 286 286 286 289 290 293 296 298 299 298 298 297 296 293 292 291 291 289 289 289 289 289 287 286 283 279
300 298 291 288 281 276 273 274 277 277 275 278 281 284 286 286 288 288 288 289 291 293 296 300 302 302 301 301 301 299 297 295 295 293 291 291 290 290 288 288 288 284 279
296 295 294 286 282 281 285 289 285 282 280 281 285 290 293 291 289 289 289 291 294 297 298 300 302 304 305 305 303 303 302 300 299 297 296 295 294 293 291 291 288 284 281
304 305 301 289 283 289 295 294 294 294 292 290 294 297 298 295 292 291 292 296 298 299 300 302 303 305 306 308 308 307 306 305 304 302 302 301 298 296 294 292 289 284 282
316 315 316 303 296 291 293 299 303 301 301 301 302 304 302 297 295 296 297 298 299 301 304 306 308 310 310 311 311 310 309 308 306 306 306 304 302 299 297 294 290 287 284
323 320 320 311 303 301 301 307 308 304 302 303 304 304 305 304 300 302 302 303 305 308 311 313 315 316 315 313 313 312 311 310 310 308 306 306 305 303 301 298 296 291 287
334 332 330 323 318 313 310 311 312 311 309 310 310 312 313 312 312 310 312 314 315 315 316 318 319 319 318 317 316 316 315 313 311 310 309 308 307 306 303 301 299 296 293
349 350 352 341 328 320 316 315 316 314 317 318 317 318 319 319 319 320 322 320 321 321 321 320 321 323 323 321 321 319 318 317 315 313 313 311 309 307 306 304 301 299 297
0 356 348 340 333 329 327 323 320 318 320 323 325 325 322 321 325 328 326 324 325 326 326 326 326 327 326 325 323 322 321 320 317 316 316 314 311 308 307 306 305 302 299
7 357 347 345 346 341 335 329 324 325 328 328 327 328 328 328 330 329 329 330 330 330 330 328 328 329 329 329 328 326 325 323 320 318 317 316 314 311 309 308 307 305 302
358 353 352 348 346 345 343 338 336 334 333 330 329 330 334 332 331 330 330 332 332 331 331 330 329 330 330 331 330 329 328 326 325 323 321 319 317 315 312 310 309 307 305
349 345 347 346 347 348 350 347 342 337 338 337 337 339 338 336 333 331 331 333 333 333 332 331 331 331 331 331 332 332 331 330 329 328 325 323 322 320 317 314 312 311 309
353 350 348 348 348 348 349 349 345 344 345 344 342 342 343 342 338 336 332 331 333 333 334 334 333 332 331 332 333 333 333 333 332 331 329 327 325 324 323 319 316 314 312
348 349 348 348 349 349 350 351 348 345 342 341 339 339 340 340 340 339 336 334 334 333 334 333 332 333 333 334 335 336 336 336 335 334 333 331 330 329 328 326 323 320 316
347 349 349 350 351 351 349 346 343 341 339 339 338 337 337 338 338 337 337 336 335 335 334 333 333 334 334 334 335 336 337 338 338 337 336 335 334 333 331 331 329 327 323
348 347 349 349 347 345 344 345 343 339 336 335 335 336 337 338 337 337 337 337 337 336 335 335 334 335 336 336 336 337 339 341 341 340 340 340 340 338 337 336 335 334 330
340 339 338 339 338 338 341 343 342 341 337 334 334 335 336 337 339 339 338 337 337 337 336 336 337 337 336 336 337 338 340 341 343 343 343 343 344 343 342 342 340 337 335
333 333 333 333 332 334 337 339 339 339 338 336 336 335 334 335 337 338 338 338 337 338 338 338 337 337 336 336 338 340 342 343 343 344 345 345 344 344 344 343 341 340 338
325 328 329 329 331 331 334 336 337 337 336 336 336 335 335 334 336 336 337 338 338 339 339 339 338 338 338 337 338 341 342 344 344 344 345 346 346 347 347 346 344 343 341
321 322 324 326 328 330 330 332 334 334 334 334 335 335 334 333 334 335 336 338 338 338 339 340 340 339 339 339 339 339 341 342 343 345 346 346 346 347 347 348 347 345 344
316 319 321 322 325 328 328 330 331 331 332 333 334 334 335 335 335 336 337 337 337 336 337 339 339 339 338 339 339 339 340 341 343 344 344 345 345 345 346 346 345 345 345
311 314 316 316 318 322 325 327 330 330 332 332 333 333 335 335 335 336 337 337 337 337 337 338 339 339 339 339 341 341 342 343 344 345 344 343 344 345 344 344 343 344 345
308 311 313 313 314 317 320 324 327 329 331 334 335 334 334 336 336 337 338 339 340 340 340 341 341 341 340 341 342 342 343 344 344 344 345 345 346 347 347 347 346 346 347
307 310 311 311 312 315 319 323 326 328 329 332 334 336 335 336 336 337 338 338 339 340 341 341 341 340 341 341 343 344 345 346 346 347 349 349 349 349 348 348 348 348 349
306 309 310 312 313 316 319 322 324 327 328 331 332 334 335 335 336 336 337 339 340 341 341 342 342 341 341 342 344 346 346 346 347 349 351 352 354 354 352 351 351 352 353
300 304 307 309 312 316 319 321 323 325 326 329 331 332 333 334 336 337 337 338 340 340 341 342 342 342 342 343 345 347 348 347 348 351 354 356 357 357 356 356 356 357 358